Tracking 19246 objects as of 19-Aug-2018
HD Live streaming from Space Station
objects crossing your sky now

WESTFORD NEEDLES

Track WESTFORD NEEDLES now!
10-day predictions
WESTFORD NEEDLES is classified as:


NORAD ID: 20504
Int'l Code: 1963-014FD
Perigee: 1,281.0 km
Apogee: 5,777.6 km
Inclination: 85.6 °
Period: 163.4 minutes
Semi major axis: 9900 km
RCS: 0.1216 m2 (medium)
Launch date: May 9, 1963
Source: United States (US)
Launch site: AIR FORCE WESTERN TEST RANGE (AFWTR)
aabbcc
Your satellite tracking list
Your tracking list is empty




NASA's NSSDC Master Catalog

Two Line Element Set (TLE):
1 20504U 63014FD  18231.45596155  .00000462  00000-0  11427-1 0  9998
2 20504  85.6396 248.3526 2270945 214.3240 128.7991  8.81315731809400
Source of the keplerian elements: AFSPC